www.pogodaiklimat.ru

Погода и климат >> Архив погоды >> Германия >> Leuchtturm Kiel


ПОГОДА в Leuchtturm Kiel

  • Прогноз погоды в Leuchtturm Kiel
  • Монитор погоды в Leuchtturm Kiel
  • Климат города

АРХИВ ПОГОДЫ в Leuchtturm Kiel

Время (UTC), дата Ветер
(напр.,м/с)
 
Видим.   Явления Облачность Т
(С)
Тd
(С)
f
(%)
Тe
(С)
Тes
(С)
Комфортность P
(гПа)
Po
(гПа)
Тmin
(С)
Tmax
(С)
R
(мм)
R24
(мм)
S
(см)
19 8.12 ЮЗ 11
{16}
н/о н/о +2.6 +0.3 85 -5 -5 999.8 996.6
20 8.12 ЮЗ 13
{16}
н/о н/о +2.1 +0.5 89 -6 -6 1000.1 996.9
21 8.12 ЮЗ 13
{16}
н/о н/о +2.1 +0.4 88 -6 -6 999.9 996.7
23 8.12 ЮЗ 12
{18}
н/о н/о +1.3 +0.1 92 -7 -7 1000.3 997.1
22 8.12 ЮЗ 14
{16}
н/о н/о +1.6 +0.2 90 -7 -7 999.9 996.7
00 9.12 ЮЗ 13
{18}
н/о н/о +1.4 +0.1 91 -7 -7 999.4 996.2
01 9.12 ЮЗ 13
{17}
н/о н/о +1.7 +0.2 90 -7 -7 998.9 995.7
02 9.12 ЮЗ 13
{17}
н/о н/о +2.0 +0.6 90 -6 -6 998.7 995.5
03 9.12 ЮЗ 13
{17}
н/о н/о +2.3 +1.1 92 -6 -6 998.2 995.0
05 9.12 ЮЗ 9
{15}
н/о н/о +2.4 +1.6 94 -5 -5 998.4 995.2
04 9.12 ЮЗ 13
{15}
н/о н/о +2.3 +1.3 93 -6 -6 998.1 994.9
06 9.12 З 10
{17}
н/о н/о +3.2 +1.3 87 -4 -4 998.6 995.4 +1.1 +3.7
07 9.12 ЮЗ 10 н/о н/о +3.0 +1.7 91 -4 -4 999.0 995.8
08 9.12 З 11
{15}
н/о н/о +3.8 +1.1 83 -3 -3 999.3 996.1
09 9.12 З 12
{15}
н/о н/о +3.7 +1.0 83 -4 -4 1000.0 996.8
11 9.12 ЮЗ 11
{14}
н/о н/о +4.4 +0.7 77 -2 -2 1000.6 997.4
10 9.12 З 9
{16}
н/о н/о +3.7 +1.0 83 -3 -3 1000.6 997.4
12 9.12 З 11
{16}
н/о н/о +4.9 +0.1 71 -2 -2 1000.6 997.4
13 9.12 З 11
{17}
н/о н/о +5.0 +1.0 75 -2 -2 1000.9 997.8
14 9.12 СЗ 10
{17}
н/о н/о +3.7 +0.3 78 -3 -3 1001.4 998.2
15 9.12 З 11
{17}
н/о н/о +2.5 +0.4 86 -5 -5 1001.5 998.3
17 9.12 ЮЗ 9
{14}
н/о н/о +3.2 +0.6 83 -4 -4 1000.9 997.7
16 9.12 З 8 н/о н/о +3.4 +0.4 81 -3 -3 1001.1 997.9
18 9.12 ЮЗ 12
{17}
н/о н/о +2.2 +0.4 88 -6 -6 1000.8 997.6 +2.1 +5.3
19 9.12 ЮЗ 11
{13}
н/о н/о +1.8 +0.3 90 -6 -6 1000.9 997.7
20 9.12 ЮЗ 8
{13}
н/о н/о +0.8 +0.3 96 -7 -7 1000.8 997.6
21 9.12 ЮЗ 9
{16}
н/о н/о +1.4 +0.9 96 -6 -6 1000.2 997.0
23 9.12 ЮЗ 14
{17}
н/о н/о +1.5 +0.4 92 -7 -7 998.9 995.7
22 9.12 ЮЗ 11
{14}
н/о н/о +1.7 +0.9 94 -6 -6 999.6 996.4
00 10.12 ЮЗ 15
{18}
н/о н/о +1.0 +0.6 97 -8 -8 998.4 995.2
01 10.12 ЮЗ 14
{17}
н/о н/о +0.9 +0.7 99 -8 -8 997.6 994.4
02 10.12 ЮЗ 12
{16}
н/о н/о +1.4 +0.7 95 -7 -7 997.2 994.0
03 10.12 ЮЗ 14
{18}
н/о н/о +1.3 +0.9 97 -8 -8 996.0 992.8
05 10.12 ЮЗ 14
{18}
н/о н/о +0.9 +0.5 97 -8 -8 994.9 991.7
04 10.12 ЮЗ 16
{18}
н/о н/о +1.3 -0.2 90 -8 -8 995.3 992.1
06 10.12 ЮЗ 15
{18}
н/о н/о +1.6 +0.7 94 -8 -8 993.9 990.7 +0.7 +3.3
07 10.12 ЮЗ 14
{18}
н/о н/о +1.6 -0.4 87 -7 -7 993.3 990.1
08 10.12 Ю 13
{17}
н/о н/о +1.5 -0.9 84 -7 -7 992.6 989.4
09 10.12 ЮЗ 12
{18}
н/о н/о +1.3 -1.3 83 -7 -7 991.7 988.5
11 10.12 Ю 12
{16}
н/о н/о +1.5 -1.7 79 -7 -7 989.2 986.0
10 10.12 Ю 12
{15}
н/о н/о +1.5 -1.0 83 -7 -7 990.7 987.5
12 10.12 Ю 11
{18}
н/о н/о +1.2 -2.8 75 -7 -7 987.8 984.6
13 10.12 Ю 9 н/о н/о +1.3 -2.2 77 -6 -6 986.6 983.4
14 10.12 Ю 9 н/о н/о +1.2 -2.0 79 -6 -6 985.5 982.3
15 10.12 ЮВ 9
{16}
н/о н/о +1.2 -1.5 82 -6 -6 984.5 981.3
17 10.12 ЮВ 11
{13}
н/о н/о 0.0 -0.7 95 -9 -9 982.9 979.7
16 10.12 ЮВ 10 н/о н/о +1.1 -1.6 82 -7 -7 983.7 980.5
18 10.12 ЮВ 10
{16}
н/о н/о +0.3 -2.0 85 -8 -8 982.0 978.8 -0.3 +1.9
19 10.12 ЮВ 12
{16}
н/о н/о +0.3 -2.3 83 -8 -8 981.3 978.1
20 10.12 ЮВ 12
{15}
н/о н/о +0.6 -1.9 83 -8 -8 980.5 977.4
21 10.12 ЮВ 14
{17}
н/о н/о +0.5 -2.5 80 -9 -9 979.8 976.6
23 10.12 В 12
{16}
н/о н/о +0.7 -2.2 81 -8 -8 979.5 976.4
22 10.12 ЮВ 13
{17}
н/о н/о +0.6 -2.3 81 -8 -8 979.8 976.6
00 11.12 В 12
{17}
н/о н/о +0.5 -1.6 86 -8 -8 979.2 976.1
01 11.12 В 10
{13}
н/о н/о +0.9 -1.2 86 -7 -7 979.1 976.0
02 11.12 В 11
{13}
н/о н/о +1.0 -1.8 82 -7 -7 979.9 976.8
03 11.12 СВ 13
{16}
н/о н/о +1.0 -1.7 82 -8 -8 980.7 977.6
05 11.12 СВ 10
{13}
н/о н/о +1.8 -2.4 74 -6 -6 982.9 979.7
04 11.12 СВ 11
{15}
н/о н/о +1.4 -1.9 79 -7 -7 982.3 979.1
06 11.12 СВ 7
{16}
н/о н/о +2.2 -1.6 76 -4 -4 985.5 982.4 -0.3 +2.3
07 11.12 С 11 н/о н/о +2.0 -0.8 82 -6 -6 984.6 981.4
08 11.12 СВ 11
{14}
н/о н/о +2.1 +0.2 87 -6 -6 984.8 981.6
09 11.12 СВ 11
{14}
н/о н/о +2.3 -0.6 81 -5 -5 985.5 982.4
11 11.12 СВ 8 н/о н/о +2.5 0.0 84 -4 -4 987.2 984.0
10 11.12 В 8 н/о н/о +2.3 -0.2 84 -4 -4 987.3 984.2
12 11.12 СВ 10
{14}
н/о н/о +2.6 +0.1 84 -5 -5 986.2 983.0
13 11.12 СВ 9 н/о н/о +2.7 0.0 82 -4 -4 986.7 983.6
14 11.12 СВ 10 н/о н/о +2.2 +0.6 89 -5 -5 986.0 982.9
15 11.12 СВ 13
{14}
н/о н/о +2.6 +0.8 88 -6 -6 985.0 981.9
17 11.12 СВ 13
{16}
н/о н/о +1.9 +1.0 94 -7 -7 984.3 981.1
16 11.12 СВ 11
{15}
н/о н/о +2.6 +0.2 84 -5 -5 985.6 982.4
18 11.12 СВ 12
{16}
н/о н/о +2.3 +1.3 93 -6 -6 984.6 981.5 +1.6 +2.9
19 11.12 СВ 12
{14}
н/о н/о +1.9 +1.1 94 -6 -6 984.5 981.3
20 11.12 СВ 12
{13}
н/о н/о +1.7 +1.1 96 -7 -7 983.8 980.6
21 11.12 В 8
{16}
н/о н/о +1.7 +0.8 94 -5 -5 984.3 981.1
23 11.12 СВ 6 н/о н/о +1.8 +0.8 93 -4 -4 984.2 981.0
22 11.12 СВ 6 н/о н/о +1.5 +0.9 96 -5 -5 984.0 980.8
00 12.12 СВ 6
{16}
н/о н/о +2.0 +1.1 94 -4 -4 983.9 980.8
01 12.12 СВ 7 н/о н/о +2.1 +1.0 92 -5 -5 984.0 980.8
02 12.12 С 7 н/о н/о +1.7 +0.8 94 -5 -5 984.4 981.2
03 12.12 С 7 н/о н/о +1.7 +0.7 93 -5 -5 984.8 981.6
05 12.12 С 8 н/о н/о +2.4 +1.2 92 -4 -4 986.5 983.3
04 12.12 С 7 н/о н/о +1.5 +0.7 94 -5 -5 985.6 982.4
06 12.12 С 10 н/о н/о +3.4 +1.4 87 -4 -4 987.5 984.3 +1.1 +3.5
07 12.12 СЗ 12
{14}
н/о н/о +3.7 +1.8 87 -4 -4 989.0 985.8
08 12.12 СЗ 13
{15}
н/о н/о +3.6 +1.7 87 -4 -4 990.5 987.3
09 12.12 СЗ 13
{16}
н/о н/о +3.4 +1.2 85 -4 -4 992.5 989.4
11 12.12 СЗ 13
{15}
н/о н/о +2.9 +0.6 85 -5 -5 996.0 992.8
10 12.12 СЗ 13
{16}
н/о н/о +3.1 +0.8 85 -5 -5 994.3 991.1
12 12.12 СЗ 12
{16}
н/о н/о +2.9 0.0 81 -5 -5 997.2 994.1
13 12.12 СЗ 12
{13}
н/о н/о +3.0 -0.3 79 -5 -5 998.6 995.4
14 12.12 СЗ 10
{14}
н/о н/о +2.5 -0.5 81 -5 -5 1000.4 997.2
15 12.12 З 9
{16}
н/о н/о +2.8 -1.0 76 -4 -4 1002.1 998.9
17 12.12 З 7 н/о н/о +2.7 -0.4 80 -3 -3 1004.8 1001.6
16 12.12 З 9 н/о н/о +2.8 -0.9 77 -4 -4 1003.7 1000.5
18 12.12 ЮЗ 7
{16}
н/о н/о +1.9 -0.2 86 -5 -5 1005.9 1002.6 +1.7 +3.8
19 12.12 ЮЗ 8 н/о н/о +2.0 -0.1 86 -5 -5 1006.4 1003.2
20 12.12 ЮЗ 8 н/о н/о +2.0 -0.1 86 -5 -5 1006.4 1003.2
21 12.12 ЮЗ 11
{13}
н/о н/о +2.7 +1.5 92 -5 -5 1006.9 1003.7
23 12.12 ЮЗ 12
{15}
н/о н/о +2.4 +0.7 89 -6 -6 1007.1 1003.9
22 12.12 ЮЗ 12
{13}
н/о н/о +2.4 +0.4 87 -6 -6 1006.8 1003.6
00 13.12 ЮЗ 13
{15}
н/о н/о +2.0 +0.2 88 -6 -6 1007.1 1003.8
01 13.12 ЮЗ 15
{19}
н/о н/о +1.7 +0.3 90 -7 -7 1007.5 1004.3
02 13.12 ЮЗ 15
{19}
н/о н/о +1.7 +0.2 90 -7 -7 1007.8 1004.5
03 13.12 ЮЗ 15
{19}
н/о н/о +1.8 0.0 88 -7 -7 1007.1 1003.9
05 13.12 Ю 15
{18}
н/о н/о +2.0 +0.1 87 -7 -7 1005.8 1002.6
04 13.12 ЮЗ 14
{17}
н/о н/о +1.7 -0.1 88 -7 -7 1006.6 1003.3
06 13.12 Ю 15
{19}
н/о н/о +1.8 -0.3 86 -7 -7 1005.1 1001.8 +1.3 +3.0
07 13.12 Ю 15
{19}
н/о н/о +1.9 -0.2 86 -7 -7 1004.3 1001.0
08 13.12 Ю 14
{19}
н/о н/о +2.1 0.0 86 -6 -6 1003.5 1000.2
09 13.12 Ю 15
{19}
н/о н/о +2.2 -0.7 81 -6 -6 1002.1 998.9
11 13.12 Ю 16
{20}
н/о н/о +3.0 -0.3 79 -5 -5 999.2 996.0
10 13.12 Ю 14
{19}
н/о н/о +2.4 -0.6 81 -6 -6 1001.0 997.8
12 13.12 Ю 15
{22}
н/о н/о +2.9 +0.2 82 -5 -5 997.7 994.5
13 13.12 Ю 15
{19}
н/о н/о +2.2 +0.6 89 -7 -7 996.1 992.9
14 13.12 Ю 14
{20}
н/о н/о +1.7 +1.0 95 -7 -7 994.9 991.7
15 13.12 Ю 14
{22}
н/о н/о +1.5 +1.0 96 -7 -7 993.6 990.4
17 13.12 Ю 14
{17}
н/о н/о +1.4 +0.9 96 -8 -8 991.2 988.0
16 13.12 Ю 14
{17}
н/о н/о +1.8 +1.3 96 -7 -7 992.3 989.2
18 13.12 Ю 14
{22}
н/о н/о +1.3 +1.0 98 -8 -8 990.0 986.8 +1.0 +3.1
19 13.12 Ю 12
{16}
н/о н/о +1.9 +1.4 96 -6 -6 989.0 985.8
20 13.12 Ю 13
{16}
н/о н/о +1.9 +1.3 96 -7 -7 987.9 984.8
21 13.12 Ю 12
{17}
н/о н/о +2.2 +1.8 97 -6 -6 986.5 983.3
23 13.12 Ю 13
{16}
н/о н/о +3.3 +2.2 92 -5 -5 983.5 980.4
22 13.12 Ю 11
{14}
н/о н/о +2.6 +2.6 100 -5 -5 985.1 981.9
00 14.12 Ю 11
{17}
н/о н/о +3.3 +2.3 93 -4 -4 982.2 979.1
01 14.12 Ю 13
{17}
н/о н/о +2.7 +1.4 91 -6 -6 980.3 977.2
02 14.12 Ю 12
{16}
н/о н/о +1.0 +0.3 95 -8 -8 979.3 976.1
03 14.12 Ю 13
{17}
н/о н/о +1.1 +0.8 98 -8 -8 978.1 974.9
05 14.12 ЮЗ 13
{17}
н/о н/о +4.5 +2.5 87 -3 -3 978.9 975.8
04 14.12 ЮЗ 14
{16}
н/о н/о +3.2 +2.3 94 -5 -5 978.1 975.0
06 14.12 ЮЗ 12
{17}
н/о н/о +4.5 +2.4 86 -3 -3 980.1 976.9 +0.6 +4.5
07 14.12 ЮЗ 13
{17}
н/о н/о +4.3 +2.0 85 -3 -3 981.0 977.8
08 14.12 ЮЗ 12
{16}
н/о н/о +3.7 +1.7 87 -4 -4 981.9 978.7
09 14.12 ЮЗ 12
{17}
н/о н/о +3.7 +1.7 87 -4 -4 982.7 979.6
11 14.12 ЮЗ 14
{18}
н/о н/о +3.8 +1.8 87 -4 -4 984.1 980.9
10 14.12 ЮЗ 13
{18}
н/о н/о +3.6 +1.7 87 -4 -4 983.5 980.4
13 14.12 ЮЗ 12
{19}
н/о н/о +2.8 +1.4 90 -5 -5 985.0 981.8
14 14.12 ЮЗ 13
{15}
н/о н/о +2.9 +1.2 89 -5 -5 985.2 982.0
15 14.12 ЮЗ 12
{19}
н/о н/о +3.2 +1.6 89 -5 -5 985.8 982.7
17 14.12 ЮЗ 11
{15}
н/о н/о +2.6 +1.3 91 -5 -5 986.2 983.0
16 14.12 ЮЗ 12
{15}
н/о н/о +2.1 +0.9 92 -6 -6 986.1 983.0
18 14.12 ЮЗ 12
{19}
н/о н/о +3.0 +1.4 89 -5 -5 986.5 983.3 +2.0 +4.6
19 14.12 ЮЗ 11
{15}
н/о н/о +3.3 +1.4 87 -4 -4 986.9 983.7
20 14.12 ЮЗ 11
{14}
н/о н/о +3.1 +1.5 89 -4 -4 987.1 984.0
21 14.12 ЮЗ 10
{15}
н/о н/о +3.3 +1.7 89 -4 -4 987.4 984.2
23 14.12 ЮЗ 9 н/о н/о +3.2 +1.5 89 -4 -4 987.8 984.6
22 14.12 ЮЗ 10
{13}
н/о н/о +3.3 +1.7 89 -4 -4 987.6 984.4
00 15.12 ЮЗ 8
{15}
н/о н/о +3.4 +1.6 88 -3 -3 988.1 984.9
01 15.12 ЮЗ 10
{13}
н/о н/о +3.6 +1.7 87 -3 -3 988.2 985.0
02 15.12 ЮЗ 10
{15}
н/о н/о +3.5 +1.8 89 -4 -4 988.5 985.4
03 15.12 ЮЗ 9
{15}
н/о н/о +3.3 +1.4 87 -4 -4 988.7 985.6
05 15.12 ЮЗ 8 н/о н/о +3.0 +1.3 89 -4 -4 989.9 986.8
04 15.12 ЮЗ 10 н/о н/о +3.1 +1.1 87 -4 -4 989.3 986.1
06 15.12 ЮЗ 7
{15}
н/о н/о +2.9 +1.4 90 -3 -3 990.4 987.3 +2.6 +3.7
07 15.12 ЮЗ 7 н/о н/о +2.8 +1.4 90 -4 -4 991.1 988.0
08 15.12 ЮЗ 8 н/о н/о +2.7 +1.3 90 -4 -4 991.8 988.6
09 15.12 ЮЗ 8 н/о н/о +2.7 +1.4 91 -4 -4 992.5 989.4
11 15.12 ЮЗ 7 н/о н/о +3.2 +1.7 90 -3 -3 993.6 990.4
10 15.12 ЮЗ 8 н/о н/о +2.8 +1.5 91 -4 -4 993.2 990.1
12 15.12 ЮЗ 7 н/о н/о +3.5 +1.9 89 -3 -3 993.9 990.7
13 15.12 ЮЗ 8 н/о н/о +3.7 +2.2 90 -3 -3 994.4 991.3
14 15.12 ЮЗ 8 н/о н/о +3.4 +2.1 91 -3 -3 995.0 991.8
15 15.12 ЮЗ 8 н/о н/о +3.4 +2.0 91 -3 -3 995.8 992.6
17 15.12 ЮЗ 9 н/о н/о +3.0 +1.9 92 -4 -4 996.4 993.3
16 15.12 ЮЗ 9 н/о н/о +3.2 +2.0 92 -4 -4 996.1 992.9
18 15.12 ЮЗ 9 н/о н/о +2.9 +1.4 90 -4 -4 996.9 993.7 +2.5 +3.7

 

Местоположение метеостанции Leuchtturm Kiel (Германия): широта 54.50 долгота 10.28 высота над уровнем моря 21 м.

В архиве по умолчанию представлена погода в Leuchtturm Kiel за последнюю неделю. Архивные данные за месяц целиком и за предыдущие месяцы, начиная с января 2011 года, Вы можете получить, выбрав интересующий диапазон дат из раскрывающегося списка и нажав кнопку "Ввод!".

Внимание! Время в таблицах - всемирное. Для получения местного времени необходимо прибавить поправку, которая в Leuchtturm Kiel равна 1 ч.

Смотрите также архив погоды в соседних городах и на ближайших метеорологических станциях:

Погода в Kiel-Holtenau (Германия) (16 км)
Погода в Olpenitz (Германия) (25 км)
Погода в Doernick (Германия) (37 км)
Погода в Kegnaes (Дания) (43 км)
Погода в Schleswig (Германия) (47 км)
Погода в Schleswig Airport (Германия) (49 км)
Погода в Westermarkelsdorf (Германия) (51 км)
Погода в Hohn (Германия) (53 км)
Погода в Langoe (Дания) (58 км)
Погода в Taasinge (Дания) (61 км)

Пояснения к столбцам:

Ветер - указаны скорость ветра в м/с - средняя за 10 мин, порывы в срок и между сроками (в фигурных скобках) и направление, откуда дует ветер: С - северный, СВ - северо-восточный, В - восточный, ЮВ - юго-восточный, Ю - южный, ЮЗ - юго-западный, З - западный, СЗ - северо-западный.
Видимость - горизонтальная дальность видимости в метрах или километрах. При видимости от 1 до 10 км при отсутствии осадков обычно наблюдается дымка, при ухудшении видимости до 1 км и менее - туман. В сухую погоду видимость может ухудшаться дымом, пылью или мглою.
Явления - указаны атмосферные явления, наблюдавшиеся в срок или в последний час перед сроком; фигурными скобками обозначены явления, наблюдавшиеся между сроками (за 1-3 часа до срока); квадратными скобками обозначены град или гололедные отложения с указанием их диаметра в мм.
Облачность - указаны через наклонную черту общая и нижняя облачность в баллах и высота нижней границы облаков в метрах; квадратными скобками обозначены формы облаков: Ci - перистые, Cs - перисто-слоистые, Cc - перисто-кучевые, Ac - высококучевые, As - высокослоистые, Sc - слоисто-кучевые, Ns - слоисто-дождевые, Cu - кучевые, Cb - кучево-дождевые. Подробнее классификацию облаков см. в Атласе облаков (PDF).
T - Температура воздуха - температура, измеренная на высоте 2 м над землей.
Td - Температура точки росы - температура, при понижении до которой содержащийся в воздухе водяной пар достигнет насыщения.
f - Относительная влажность воздуха - влажноcть воздуха, измеренная на высоте 2 м над землей.
Te - Эффективная температура - температура, которую ощущает одетый по сезону человек в тени. Характеристика душности погоды. При расчете учитывается влияние влажности воздуха и скорости ветра на теплоощущения человека.
Tes - Эффективная температура на солнце - температура, которую ощущает человек, с поправкой на солнечный нагрев. Характеристика знойности погоды. Зависит от высоты солнца над горизонтом, облачности и скорости ветра. Ночью, в пасмурную погоду, а также при ветре 12 м/с и более поправка равна нулю.
P - Атмосферное давление - приведенное к уровню моря атмосферное давление.
Po - Атмосферное давление - измеренное на уровне метеостанции атмосферное давление.
Tmin - Минимальная температура - минимум температуры воздуха на высоте 2 м над землей.
Tmax - Максимальная температура - максимум температуры воздуха на высоте 2 м над землей.
R - Количество осадков - Количество выпавших осадков за период времени, мм. При наведении курсора мыши на число - период времени, за который выпало указанное количество осадков.
R24 - Количество осадков - Количество выпавших осадков за 24 часа, мм.
S - Снежный покров - Высота снежного покрова, см. При наведении курсора мыши на число - состояние снежного покрова и степень покрытия местности в баллах.